Time,TemperatureF,DewpointF,PressureIn,WindDirection,WindDirectionDegrees,WindSpeedMPH,WindSpeedGustMPH,Humidity,HourlyPrecipIn,Conditions,Clouds,dailyrainin,SoftwareType,DateUTC
2013-07-20 00:01:00,73.2,62.9,29.14,North,0,0.0,1.3,70,0.00,,---,0.00,VWS V14.01,2013-07-20 04:01:00,
2013-07-20 00:02:00,73.2,62.9,29.14,North,0,0.0,0.0,70,0.00,,---,0.00,VWS V14.01,2013-07-20 04:02:00,
2013-07-20 00:04:00,73.2,62.9,29.14,North,0,0.0,0.0,70,0.00,,---,0.00,VWS V14.01,2013-07-20 04:04:00,
2013-07-20 00:05:00,73.2,62.9,29.14,WSW,248,2.5,2.5,70,0.00,,---,0.00,VWS V14.01,2013-07-20 04:05:00,
2013-07-20 00:10:00,73.0,63.1,29.14,ENE,68,2.2,2.5,71,0.00,,---,0.00,VWS V14.01,2013-07-20 04:10:00,
2013-07-20 00:15:00,73.0,63.1,29.14,SSW,202,0.0,0.0,71,0.00,,---,0.00,VWS V14.01,2013-07-20 04:15:00,
2013-07-20 00:20:00,73.0,63.1,29.14,East,90,0.0,0.0,71,0.00,,---,0.00,VWS V14.01,2013-07-20 04:20:00,
2013-07-20 00:26:00,73.0,63.1,29.12,NNE,22,0.0,2.7,71,0.00,,---,0.00,VWS V14.01,2013-07-20 04:26:00,
2013-07-20 00:31:00,73.0,63.5,29.12,NNE,22,0.9,1.3,72,0.00,,---,0.00,VWS V14.01,2013-07-20 04:31:00,
2013-07-20 00:36:00,72.9,63.3,29.12,NNE,22,1.3,1.3,72,0.00,,---,0.00,VWS V14.01,2013-07-20 04:36:00,
2013-07-20 00:41:00,72.7,63.1,29.12,WNW,292,0.0,0.0,72,0.00,,---,0.00,VWS V14.01,2013-07-20 04:41:00,
2013-07-20 00:46:00,72.7,63.5,29.12,WNW,292,0.0,0.0,73,0.00,,---,0.00,VWS V14.01,2013-07-20 04:46:00,
2013-07-20 00:52:00,72.5,63.8,29.12,NE,45,0.9,2.5,74,0.00,,---,0.00,VWS V14.01,2013-07-20 04:52:00,
2013-07-20 00:58:00,72.3,63.6,29.12,NNW,338,0.0,0.0,74,0.00,,---,0.00,VWS V14.01,2013-07-20 04:58:00,
2013-07-20 01:03:00,72.3,64.0,29.12,North,0,0.0,0.0,75,0.00,,---,0.00,VWS V14.01,2013-07-20 05:03:00,
2013-07-20 01:08:00,72.3,64.0,29.12,North,0,0.0,0.0,75,0.00,,---,0.00,VWS V14.01,2013-07-20 05:08:00,
2013-07-20 01:13:00,72.3,64.3,29.12,NNE,22,0.0,0.0,76,0.00,,---,0.00,VWS V14.01,2013-07-20 05:13:00,
2013-07-20 01:18:00,72.1,64.2,29.12,NNE,22,0.0,0.0,76,0.00,,---,0.00,VWS V14.01,2013-07-20 05:18:00,
2013-07-20 01:23:00,72.1,64.5,29.09,WSW,248,0.0,0.0,77,0.00,,---,0.00,VWS V14.01,2013-07-20 05:23:00,
2013-07-20 01:28:00,72.1,64.5,29.09,East,90,0.0,0.0,77,0.00,,---,0.00,VWS V14.01,2013-07-20 05:28:00,
2013-07-20 01:34:00,72.0,64.7,29.09,East,90,2.2,2.2,78,0.00,,---,0.00,VWS V14.01,2013-07-20 05:34:00,
2013-07-20 01:39:00,72.0,65.1,29.09,West,270,2.0,2.0,79,0.00,,---,0.00,VWS V14.01,2013-07-20 05:39:00,
2013-07-20 01:44:00,72.0,65.1,29.09,SW,225,2.2,2.2,79,0.00,,---,0.00,VWS V14.01,2013-07-20 05:44:00,
2013-07-20 01:50:00,72.0,65.1,29.09,SSE,158,1.1,1.6,79,0.00,,---,0.00,VWS V14.01,2013-07-20 05:50:00,
2013-07-20 01:55:00,72.0,65.1,29.09,SSE,158,0.0,0.0,79,0.00,,---,0.00,VWS V14.01,2013-07-20 05:55:00,
2013-07-20 02:00:00,71.8,64.9,29.09,WSW,248,0.0,1.3,79,0.00,,---,0.00,VWS V14.01,2013-07-20 06:00:00,
2013-07-20 02:05:00,71.8,64.9,29.09,ENE,68,2.5,2.5,79,0.00,,---,0.00,VWS V14.01,2013-07-20 06:05:00,
2013-07-20 02:10:00,71.6,64.8,29.09,ENE,68,2.5,3.1,79,0.00,,---,0.00,VWS V14.01,2013-07-20 06:10:00,
2013-07-20 02:17:00,71.4,65.3,29.09,ENE,68,0.0,2.2,81,0.00,,---,0.00,VWS V14.01,2013-07-20 06:17:00,
2013-07-20 02:23:00,71.2,65.1,29.09,NNE,22,0.0,0.0,81,0.00,,---,0.00,VWS V14.01,2013-07-20 06:23:00,
2013-07-20 02:28:00,71.1,65.3,29.09,WNW,292,0.0,0.0,82,0.00,,---,0.00,VWS V14.01,2013-07-20 06:28:00,
2013-07-20 02:33:00,71.1,65.3,29.09,WNW,292,0.0,0.0,82,0.00,,---,0.00,VWS V14.01,2013-07-20 06:33:00,
2013-07-20 02:38:00,70.9,65.1,29.09,WNW,292,0.0,0.0,82,0.00,,---,0.00,VWS V14.01,2013-07-20 06:38:00,
2013-07-20 02:44:00,70.9,65.1,29.09,WNW,292,0.0,0.9,82,0.00,,---,0.00,VWS V14.01,2013-07-20 06:44:00,
2013-07-20 02:49:00,70.9,65.5,29.09,WNW,292,0.0,0.0,83,0.00,,---,0.00,VWS V14.01,2013-07-20 06:49:00,
2013-07-20 02:55:00,70.7,65.3,29.09,NNW,338,1.3,1.3,83,0.00,,---,0.00,VWS V14.01,2013-07-20 06:55:00,
2013-07-20 03:00:00,70.7,65.3,29.09,NNE,22,2.0,2.0,83,0.00,,---,0.00,VWS V14.01,2013-07-20 07:00:00,
2013-07-20 03:06:00,70.5,65.5,29.09,NNE,22,0.0,0.0,84,0.00,,---,0.00,VWS V14.01,2013-07-20 07:06:00,
2013-07-20 03:11:00,70.5,65.5,29.09,NNE,22,0.0,0.0,84,0.00,,---,0.00,VWS V14.01,2013-07-20 07:11:00,
2013-07-20 03:16:00,70.5,65.5,29.09,NNE,22,0.0,0.0,84,0.00,,---,0.00,VWS V14.01,2013-07-20 07:16:00,
2013-07-20 03:21:00,70.3,65.6,29.09,NNE,22,0.0,0.0,85,0.00,,---,0.00,VWS V14.01,2013-07-20 07:21:00,
2013-07-20 03:26:00,70.3,65.6,29.09,NNE,22,0.0,0.0,85,0.00,,---,0.00,VWS V14.01,2013-07-20 07:26:00,
2013-07-20 03:31:00,70.3,66.0,29.09,NNE,22,0.0,0.0,86,0.00,,---,0.00,VWS V14.01,2013-07-20 07:31:00,
2013-07-20 03:36:00,70.3,66.0,29.09,NNE,22,0.0,1.3,86,0.00,,---,0.00,VWS V14.01,2013-07-20 07:36:00,
2013-07-20 03:41:00,70.3,66.3,29.09,NE,45,0.0,2.7,87,0.00,,---,0.00,VWS V14.01,2013-07-20 07:41:00,
2013-07-20 03:47:00,70.2,66.1,29.09,ENE,68,3.6,3.6,87,0.00,,---,0.00,VWS V14.01,2013-07-20 07:47:00,
2013-07-20 03:52:00,70.2,66.1,29.09,ENE,68,1.3,2.2,87,0.00,,---,0.00,VWS V14.01,2013-07-20 07:52:00,
2013-07-20 03:57:00,70.2,66.1,29.12,ENE,68,2.5,2.5,87,0.00,,---,0.00,VWS V14.01,2013-07-20 07:57:00,
2013-07-20 04:03:00,70.2,66.1,29.12,NNE,22,0.0,0.0,87,0.00,,---,0.00,VWS V14.01,2013-07-20 08:03:00,
2013-07-20 04:09:00,70.0,65.9,29.12,NW,315,0.0,0.0,87,0.00,,---,0.00,VWS V14.01,2013-07-20 08:09:00,
2013-07-20 04:15:00,70.0,65.9,29.12,North,0,1.6,1.6,87,0.00,,---,0.00,VWS V14.01,2013-07-20 08:15:00,
2013-07-20 04:20:00,69.8,65.8,29.12,NNW,338,0.0,0.0,87,0.00,,---,0.00,VWS V14.01,2013-07-20 08:20:00,
2013-07-20 04:25:00,69.8,65.8,29.12,WNW,292,0.0,0.0,87,0.00,,---,0.00,VWS V14.01,2013-07-20 08:25:00,
2013-07-20 04:30:00,69.6,65.9,29.12,WNW,292,0.0,1.6,88,0.00,,---,0.00,VWS V14.01,2013-07-20 08:30:00,
2013-07-20 04:36:00,69.6,65.9,29.12,WNW,292,0.0,0.0,88,0.00,,---,0.00,VWS V14.01,2013-07-20 08:36:00,
2013-07-20 04:41:00,69.4,65.7,29.12,WNW,292,0.0,0.0,88,0.00,,---,0.00,VWS V14.01,2013-07-20 08:41:00,
2013-07-20 04:46:00,69.4,66.1,29.12,WNW,292,0.0,0.0,89,0.00,,---,0.00,VWS V14.01,2013-07-20 08:46:00,
2013-07-20 04:51:00,69.3,65.9,29.12,SW,225,0.0,0.0,89,0.00,,---,0.00,VWS V14.01,2013-07-20 08:51:00,
2013-07-20 04:56:00,69.1,65.7,29.12,SW,225,0.0,0.0,89,0.00,,---,0.00,VWS V14.01,2013-07-20 08:56:00,
2013-07-20 05:02:00,68.9,65.5,29.12,SW,225,0.0,0.0,89,0.00,,---,0.00,VWS V14.01,2013-07-20 09:02:00,
2013-07-20 05:07:00,68.9,65.5,29.12,SW,225,0.0,0.0,89,0.00,,---,0.00,VWS V14.01,2013-07-20 09:07:00,
2013-07-20 05:12:00,68.7,65.3,29.12,SW,225,0.0,0.0,89,0.00,,---,0.00,VWS V14.01,2013-07-20 09:12:00,
2013-07-20 05:18:00,68.5,65.2,29.12,SW,225,0.0,0.0,89,0.00,,---,0.00,VWS V14.01,2013-07-20 09:18:00,
2013-07-20 05:23:00,68.5,65.2,29.12,SW,225,0.0,0.0,89,0.00,,---,0.00,VWS V14.01,2013-07-20 09:23:00,
2013-07-20 05:28:00,68.5,65.2,29.12,SW,225,0.0,0.0,89,0.00,,---,0.00,VWS V14.01,2013-07-20 09:28:00,
2013-07-20 05:33:00,68.4,65.0,29.12,SW,225,0.0,0.0,89,0.00,,---,0.00,VWS V14.01,2013-07-20 09:33:00,
2013-07-20 05:39:00,68.4,65.0,29.12,SW,225,0.0,0.0,89,0.00,,---,0.00,VWS V14.01,2013-07-20 09:39:00,
2013-07-20 05:44:00,68.2,64.8,29.12,SW,225,0.0,0.0,89,0.00,,---,0.00,VWS V14.01,2013-07-20 09:44:00,
2013-07-20 05:49:00,68.2,64.8,29.12,SW,225,0.0,0.0,89,0.00,,---,0.00,VWS V14.01,2013-07-20 09:49:00,
2013-07-20 05:54:00,68.2,65.1,29.12,SW,225,1.6,1.6,90,0.00,,---,0.00,VWS V14.01,2013-07-20 09:54:00,
2013-07-20 06:00:00,68.2,65.1,29.12,SW,225,0.0,0.0,90,0.00,,---,0.00,VWS V14.01,2013-07-20 10:00:00,
2013-07-20 06:05:00,68.0,65.0,29.12,SW,225,0.0,0.0,90,0.00,,---,0.00,VWS V14.01,2013-07-20 10:05:00,
2013-07-20 06:10:00,68.2,65.1,29.12,SW,225,0.0,0.0,90,0.00,,---,0.00,VWS V14.01,2013-07-20 10:10:00,
2013-07-20 06:15:00,68.2,65.1,29.12,SW,225,0.0,0.0,90,0.00,,---,0.00,VWS V14.01,2013-07-20 10:15:00,
2013-07-20 06:21:00,68.2,65.1,29.12,SW,225,0.0,0.0,90,0.00,,---,0.00,VWS V14.01,2013-07-20 10:21:00,
2013-07-20 06:26:00,68.2,65.1,29.14,SW,225,0.0,0.0,90,0.00,,---,0.00,VWS V14.01,2013-07-20 10:26:00,
2013-07-20 06:32:00,68.5,65.5,29.14,SW,225,0.0,0.0,90,0.00,,---,0.00,VWS V14.01,2013-07-20 10:32:00,
2013-07-20 06:37:00,68.7,65.7,29.14,SW,225,0.0,0.0,90,0.00,,---,0.00,VWS V14.01,2013-07-20 10:37:00,
2013-07-20 06:42:00,68.7,66.0,29.14,SW,225,0.0,0.0,91,0.00,,---,0.00,VWS V14.01,2013-07-20 10:42:00,
2013-07-20 06:47:00,69.1,66.3,29.14,SW,225,0.0,0.0,91,0.00,,---,0.00,VWS V14.01,2013-07-20 10:47:00,
2013-07-20 06:52:00,69.4,66.7,29.14,SW,225,0.0,0.0,91,0.00,,---,0.00,VWS V14.01,2013-07-20 10:52:00,
2013-07-20 06:57:00,69.8,67.1,29.14,SW,225,0.0,0.0,91,0.00,,---,0.00,VWS V14.01,2013-07-20 10:57:00,
2013-07-20 07:03:00,70.3,67.3,29.14,SW,225,0.0,0.0,90,0.00,,---,0.00,VWS V14.01,2013-07-20 11:03:00,
2013-07-20 07:08:00,70.7,67.6,29.14,SW,225,0.0,0.0,90,0.00,,---,0.00,VWS V14.01,2013-07-20 11:08:00,
2013-07-20 07:13:00,71.1,68.0,29.14,SW,225,0.0,0.0,90,0.00,,---,0.00,VWS V14.01,2013-07-20 11:13:00,
2013-07-20 07:19:00,71.8,68.4,29.14,SW,225,0.0,0.0,89,0.00,,---,0.00,VWS V14.01,2013-07-20 11:19:00,
2013-07-20 07:25:00,72.0,68.2,29.14,SW,225,0.0,0.0,88,0.00,,---,0.00,VWS V14.01,2013-07-20 11:25:00,
2013-07-20 07:30:00,72.3,68.2,29.14,SW,225,0.0,0.0,87,0.00,,---,0.00,VWS V14.01,2013-07-20 11:30:00,
2013-07-20 07:35:00,72.5,68.1,29.14,SW,225,2.2,2.5,86,0.00,,---,0.00,VWS V14.01,2013-07-20 11:35:00,
2013-07-20 07:40:00,72.7,67.9,29.14,SW,225,0.0,0.0,85,0.00,,---,0.00,VWS V14.01,2013-07-20 11:40:00,
2013-07-20 07:45:00,72.9,67.8,29.14,NE,45,0.0,0.0,84,0.00,,---,0.00,VWS V14.01,2013-07-20 11:45:00,
2013-07-20 07:51:00,73.0,67.9,29.14,East,90,0.0,0.0,84,0.00,,---,0.00,VWS V14.01,2013-07-20 11:51:00,
2013-07-20 07:56:00,73.2,68.4,29.14,East,90,1.1,1.3,85,0.00,,---,0.00,VWS V14.01,2013-07-20 11:56:00,
2013-07-20 08:01:00,73.4,67.9,29.14,East,90,0.0,0.0,83,0.00,,---,0.00,VWS V14.01,2013-07-20 12:01:00,
2013-07-20 08:07:00,73.2,67.8,29.14,East,90,0.0,0.0,83,0.00,,---,0.00,VWS V14.01,2013-07-20 12:07:00,
2013-07-20 08:13:00,73.8,67.9,29.14,East,90,0.0,0.0,82,0.00,,---,0.00,VWS V14.01,2013-07-20 12:13:00,
2013-07-20 08:18:00,74.1,67.9,29.14,East,90,0.0,0.0,81,0.00,,---,0.00,VWS V14.01,2013-07-20 12:18:00,
2013-07-20 08:23:00,74.5,68.3,29.14,ENE,68,0.0,0.0,81,0.00,,---,0.00,VWS V14.01,2013-07-20 12:23:00,
2013-07-20 08:29:00,74.8,68.6,29.14,East,90,2.2,3.4,81,0.00,,---,0.00,VWS V14.01,2013-07-20 12:29:00,
2013-07-20 08:35:00,75.4,68.8,29.14,ENE,68,1.6,2.5,80,0.00,,---,0.00,VWS V14.01,2013-07-20 12:35:00,
2013-07-20 08:40:00,75.9,69.3,29.12,NNW,338,2.5,2.5,80,0.00,,---,0.00,VWS V14.01,2013-07-20 12:40:00,
2013-07-20 08:45:00,76.5,69.8,29.12,ENE,68,2.5,3.4,80,0.00,,---,0.00,VWS V14.01,2013-07-20 12:45:00,
2013-07-20 08:50:00,77.2,70.2,29.12,NE,45,0.0,0.0,79,0.00,,---,0.00,VWS V14.01,2013-07-20 12:50:00,
2013-07-20 08:56:00,77.9,70.9,29.12,ENE,68,2.0,2.9,79,0.00,,---,0.00,VWS V14.01,2013-07-20 12:56:00,
2013-07-20 09:01:00,78.1,70.7,29.12,ENE,68,2.0,4.3,78,0.00,,---,0.00,VWS V14.01,2013-07-20 13:01:00,
2013-07-20 09:06:00,78.8,70.6,29.12,ENE,68,0.0,2.0,76,0.00,,---,0.00,VWS V14.01,2013-07-20 13:06:00,
2013-07-20 09:11:00,79.7,71.5,29.12,NNE,22,4.9,4.9,76,0.00,,---,0.00,VWS V14.01,2013-07-20 13:11:00,
2013-07-20 09:16:00,80.6,71.2,29.12,SSW,202,1.6,3.1,73,0.00,,---,0.00,VWS V14.01,2013-07-20 13:16:00,
2013-07-20 09:22:00,81.3,71.0,29.12,ENE,68,0.0,1.3,71,0.00,,---,0.00,VWS V14.01,2013-07-20 13:22:00,
2013-07-20 09:27:00,81.7,70.1,29.12,East,90,0.0,1.6,68,0.00,,---,0.00,VWS V14.01,2013-07-20 13:27:00,
2013-07-20 09:33:00,81.9,70.3,29.12,WNW,292,0.0,0.0,68,0.00,,---,0.00,VWS V14.01,2013-07-20 13:33:00,
2013-07-20 09:38:00,81.9,70.3,29.12,ENE,68,1.6,2.5,68,0.00,,---,0.00,VWS V14.01,2013-07-20 13:38:00,
2013-07-20 09:43:00,81.9,69.8,29.12,North,0,1.3,1.3,67,0.00,,---,0.00,VWS V14.01,2013-07-20 13:43:00,
2013-07-20 09:48:00,81.7,69.7,29.12,NNE,22,0.0,0.0,67,0.00,,---,0.00,VWS V14.01,2013-07-20 13:48:00,
2013-07-20 09:53:00,81.7,69.2,29.09,North,0,0.0,0.0,66,0.00,,---,0.00,VWS V14.01,2013-07-20 13:53:00,
2013-07-20 09:59:00,81.5,69.1,29.09,North,0,1.3,1.3,66,0.00,,---,0.00,VWS V14.01,2013-07-20 13:59:00,
2013-07-20 10:04:00,81.3,68.4,29.09,NE,45,1.1,2.2,65,0.00,,---,0.00,VWS V14.01,2013-07-20 14:04:00,
2013-07-20 10:09:00,81.1,68.3,29.09,NNE,22,1.3,2.0,65,0.00,,---,0.00,VWS V14.01,2013-07-20 14:09:00,
2013-07-20 10:14:00,80.6,67.8,29.09,NNE,22,2.2,2.2,65,0.00,,---,0.00,VWS V14.01,2013-07-20 14:14:00,
2013-07-20 10:20:00,80.2,67.9,29.09,NW,315,0.0,0.0,66,0.00,,---,0.00,VWS V14.01,2013-07-20 14:20:00,
2013-07-20 10:25:00,80.2,67.9,29.12,NNE,22,0.0,0.0,66,0.00,,---,0.00,VWS V14.01,2013-07-20 14:25:00,
2013-07-20 10:30:00,80.4,68.0,29.12,NW,315,2.0,2.7,66,0.00,,---,0.00,VWS V14.01,2013-07-20 14:30:00,
2013-07-20 10:35:00,80.2,68.3,29.12,NW,315,0.0,0.0,67,0.00,,---,0.00,VWS V14.01,2013-07-20 14:35:00,
2013-07-20 10:40:00,80.8,68.8,29.12,NNE,22,0.0,0.0,67,0.00,,---,0.00,VWS V14.01,2013-07-20 14:40:00,
2013-07-20 10:46:00,80.8,68.4,29.12,ENE,68,1.6,2.5,66,0.00,,---,0.00,VWS V14.01,2013-07-20 14:46:00,
2013-07-20 10:51:00,80.6,68.2,29.12,NNE,22,1.1,1.1,66,0.00,,---,0.00,VWS V14.01,2013-07-20 14:51:00,
2013-07-20 10:56:00,80.2,68.3,29.12,NNE,22,0.0,0.0,67,0.00,,---,0.00,VWS V14.01,2013-07-20 14:56:00,
2013-07-20 11:01:00,80.1,68.6,29.12,North,0,0.0,0.0,68,0.00,,---,0.00,VWS V14.01,2013-07-20 15:01:00,
2013-07-20 11:07:00,79.7,68.2,29.12,West,270,0.0,0.0,68,0.00,,---,0.00,VWS V14.01,2013-07-20 15:07:00,
2013-07-20 11:12:00,79.7,67.8,29.12,SW,225,0.0,0.0,67,0.00,,---,0.00,VWS V14.01,2013-07-20 15:12:00,
2013-07-20 11:17:00,79.9,67.9,29.12,SSE,158,1.3,1.3,67,0.00,,---,0.00,VWS V14.01,2013-07-20 15:17:00,
2013-07-20 11:23:00,80.2,68.7,29.12,WSW,248,2.2,2.2,68,0.00,,---,0.00,VWS V14.01,2013-07-20 15:23:00,
2013-07-20 11:28:00,80.4,68.9,29.12,SW,225,0.0,0.0,68,0.00,,---,0.00,VWS V14.01,2013-07-20 15:28:00,
2013-07-20 11:33:00,80.4,68.9,29.12,NNE,22,0.0,1.6,68,0.00,,---,0.00,VWS V14.01,2013-07-20 15:33:00,
2013-07-20 11:38:00,80.8,68.8,29.12,WNW,292,0.0,1.1,67,0.00,,---,0.00,VWS V14.01,2013-07-20 15:38:00,
2013-07-20 11:44:00,81.9,68.5,29.12,NNE,22,0.9,2.5,64,0.00,,---,0.00,VWS V14.01,2013-07-20 15:44:00,
2013-07-20 11:49:00,82.9,69.1,29.12,NNE,22,2.2,3.4,63,0.00,,---,0.00,VWS V14.01,2013-07-20 15:49:00,
2013-07-20 11:54:00,83.8,69.9,29.09,NNE,22,0.0,1.1,63,0.00,,---,0.00,VWS V14.01,2013-07-20 15:54:00,
2013-07-20 11:59:00,84.9,69.5,29.09,WSW,248,1.6,2.0,60,0.00,,---,0.00,VWS V14.01,2013-07-20 15:59:00,
2013-07-20 12:05:00,85.5,65.8,29.09,SSW,202,1.3,2.0,52,0.00,,---,0.00,VWS V14.01,2013-07-20 16:05:00,
2013-07-20 12:11:00,85.8,62.0,29.09,SW,225,2.9,2.9,45,0.00,,---,0.00,VWS V14.01,2013-07-20 16:11:00,
2013-07-20 12:16:00,86.2,64.2,29.09,NNW,338,3.6,3.6,48,0.00,,---,0.00,VWS V14.01,2013-07-20 16:16:00,
2013-07-20 12:21:00,86.7,64.1,29.09,SW,225,2.7,2.7,47,0.00,,---,0.00,VWS V14.01,2013-07-20 16:21:00,
2013-07-20 12:27:00,87.3,63.3,29.09,SSE,158,1.3,2.0,45,0.00,,---,0.00,VWS V14.01,2013-07-20 16:27:00,
2013-07-20 12:32:00,87.6,64.3,29.09,WSW,248,2.0,2.0,46,0.00,,---,0.00,VWS V14.01,2013-07-20 16:32:00,
2013-07-20 12:37:00,87.8,63.8,29.09,WNW,292,0.9,3.1,45,0.00,,---,0.00,VWS V14.01,2013-07-20 16:37:00,
2013-07-20 12:43:00,88.0,63.4,29.09,WSW,248,2.0,3.4,44,0.00,,---,0.00,VWS V14.01,2013-07-20 16:43:00,
2013-07-20 12:48:00,88.0,62.0,29.09,NNW,338,3.4,3.4,42,0.00,,---,0.00,VWS V14.01,2013-07-20 16:48:00,
2013-07-20 12:54:00,88.5,61.8,29.06,West,270,3.6,5.4,41,0.00,,---,0.00,VWS V14.01,2013-07-20 16:54:00,
2013-07-20 12:59:00,88.9,63.5,29.06,SSW,202,3.8,3.8,43,0.00,,---,0.00,VWS V14.01,2013-07-20 16:59:00,
2013-07-20 13:04:00,89.2,64.5,29.06,North,0,2.7,3.4,44,0.00,,---,0.00,VWS V14.01,2013-07-20 17:04:00,
2013-07-20 13:09:00,89.6,64.8,29.06,NW,315,7.2,7.2,44,0.00,,---,0.00,VWS V14.01,2013-07-20 17:09:00,
2013-07-20 13:15:00,89.6,63.5,29.06,North,0,3.1,3.8,42,0.00,,---,0.00,VWS V14.01,2013-07-20 17:15:00,
2013-07-20 13:20:00,90.1,64.0,29.06,SW,225,4.0,4.0,42,0.00,,---,0.00,VWS V14.01,2013-07-20 17:20:00,
2013-07-20 13:25:00,90.9,64.6,29.06,NW,315,4.0,4.0,42,0.00,,---,0.00,VWS V14.01,2013-07-20 17:25:00,
2013-07-20 13:30:00,91.6,65.3,29.06,SW,225,1.6,3.6,42,0.00,,---,0.00,VWS V14.01,2013-07-20 17:30:00,
2013-07-20 13:36:00,92.3,64.5,29.06,SSW,202,2.9,6.0,40,0.00,,---,0.00,VWS V14.01,2013-07-20 17:36:00,
2013-07-20 13:41:00,91.8,63.3,29.06,SSW,202,2.7,2.9,39,0.00,,---,0.00,VWS V14.01,2013-07-20 17:41:00,
2013-07-20 13:46:00,90.5,63.6,29.06,NNE,22,2.5,2.9,41,0.00,,---,0.00,VWS V14.01,2013-07-20 17:46:00,
2013-07-20 13:51:00,89.2,62.5,29.06,SSW,202,1.3,2.0,41,0.00,,---,0.00,VWS V14.01,2013-07-20 17:51:00,
2013-07-20 13:57:00,88.7,62.0,29.06,SSW,202,1.3,1.3,41,0.00,,---,0.00,VWS V14.01,2013-07-20 17:57:00,
2013-07-20 14:03:00,88.3,63.0,29.06,SW,225,0.9,2.0,43,0.00,,---,0.00,VWS V14.01,2013-07-20 18:03:00,
2013-07-20 14:08:00,88.3,63.7,29.06,West,270,1.6,3.4,44,0.00,,---,0.00,VWS V14.01,2013-07-20 18:08:00,
2013-07-20 14:13:00,88.7,64.7,29.06,NNW,338,2.9,2.9,45,0.00,,---,0.00,VWS V14.01,2013-07-20 18:13:00,
2013-07-20 14:18:00,89.6,65.5,29.06,NNW,338,2.0,2.5,45,0.00,,---,0.00,VWS V14.01,2013-07-20 18:18:00,
2013-07-20 14:23:00,90.3,64.8,29.06,East,90,1.3,5.6,43,0.00,,---,0.00,VWS V14.01,2013-07-20 18:23:00,
2013-07-20 14:28:00,91.0,66.1,29.06,SSW,202,1.3,1.3,44,0.00,,---,0.00,VWS V14.01,2013-07-20 18:28:00,
2013-07-20 14:33:00,91.6,65.9,29.06,WNW,292,1.6,2.7,43,0.00,,---,0.00,VWS V14.01,2013-07-20 18:33:00,
2013-07-20 14:39:00,91.2,63.5,29.06,NE,45,3.1,3.8,40,0.00,,---,0.00,VWS V14.01,2013-07-20 18:39:00,
2013-07-20 14:44:00,91.2,64.2,29.06,West,270,2.5,2.5,41,0.00,,---,0.00,VWS V14.01,2013-07-20 18:44:00,
2013-07-20 14:49:00,90.5,63.6,29.06,NW,315,3.4,4.0,41,0.00,,---,0.00,VWS V14.01,2013-07-20 18:49:00,
2013-07-20 14:56:00,89.6,63.5,29.06,SW,225,2.0,5.6,42,0.00,,---,0.00,VWS V14.01,2013-07-20 18:56:00,
2013-07-20 15:02:00,89.2,63.8,29.06,SW,225,2.0,2.2,43,0.00,,---,0.00,VWS V14.01,2013-07-20 19:02:00,
2013-07-20 15:07:00,89.1,63.7,29.06,WSW,248,1.3,2.9,43,0.00,,---,0.00,VWS V14.01,2013-07-20 19:07:00,
2013-07-20 15:12:00,89.2,63.2,29.06,NE,45,0.0,1.1,42,0.00,,---,0.00,VWS V14.01,2013-07-20 19:12:00,
2013-07-20 15:17:00,89.4,64.0,29.06,SW,225,1.6,2.9,43,0.00,,---,0.00,VWS V14.01,2013-07-20 19:17:00,
2013-07-20 15:22:00,89.4,64.7,29.06,WNW,292,1.6,2.7,44,0.00,,---,0.00,VWS V14.01,2013-07-20 19:22:00,
2013-07-20 15:28:00,89.4,65.3,29.06,WNW,292,3.1,3.6,45,0.00,,---,0.00,VWS V14.01,2013-07-20 19:28:00,
2013-07-20 15:33:00,89.2,65.1,29.06,NE,45,3.1,5.8,45,0.00,,---,0.00,VWS V14.01,2013-07-20 19:33:00,
2013-07-20 15:38:00,88.9,63.5,29.03,WSW,248,3.4,3.4,43,0.00,,---,0.00,VWS V14.01,2013-07-20 19:38:00,
2013-07-20 15:43:00,89.4,65.3,29.03,WNW,292,1.6,3.4,45,0.00,,---,0.00,VWS V14.01,2013-07-20 19:43:00,
2013-07-20 15:48:00,89.6,64.2,29.03,SE,135,0.0,2.5,43,0.00,,---,0.00,VWS V14.01,2013-07-20 19:48:00,
2013-07-20 15:53:00,89.6,65.5,29.06,NNW,338,2.5,2.5,45,0.00,,---,0.00,VWS V14.01,2013-07-20 19:53:00,
2013-07-20 15:58:00,89.2,64.5,29.06,WSW,248,1.6,2.5,44,0.00,,---,0.00,VWS V14.01,2013-07-20 19:58:00,
2013-07-20 16:04:00,89.1,65.6,29.06,WNW,292,1.6,2.0,46,0.00,,---,0.00,VWS V14.01,2013-07-20 20:04:00,
2013-07-20 16:09:00,88.3,64.3,29.06,NNW,338,2.0,2.0,45,0.00,,---,0.00,VWS V14.01,2013-07-20 20:09:00,
2013-07-20 16:14:00,87.1,61.2,29.06,ENE,68,4.0,4.5,42,0.00,,---,0.00,VWS V14.01,2013-07-20 20:14:00,
2013-07-20 16:19:00,84.4,58.1,29.06,SSE,158,6.5,10.1,41,0.00,,---,0.00,VWS V14.01,2013-07-20 20:19:00,
2013-07-20 16:24:00,82.6,57.8,29.06,SSW,202,3.4,4.0,43,0.00,,---,0.00,VWS V14.01,2013-07-20 20:24:00,
2013-07-20 16:29:00,80.8,58.1,29.06,NNE,22,4.9,4.9,46,0.00,,---,0.00,VWS V14.01,2013-07-20 20:29:00,
2013-07-20 16:34:00,78.6,60.1,29.06,SSE,158,3.8,3.8,53,0.00,,---,0.00,VWS V14.01,2013-07-20 20:34:00,
2013-07-20 16:40:00,77.4,61.0,29.09,SSW,202,2.9,2.9,57,0.00,,---,0.00,VWS V14.01,2013-07-20 20:40:00,
2013-07-20 16:46:00,76.6,61.2,29.09,WSW,248,2.7,7.4,59,0.00,,---,0.00,VWS V14.01,2013-07-20 20:46:00,
2013-07-20 16:52:00,76.1,61.7,29.09,South,180,3.4,3.4,61,0.00,,---,0.00,VWS V14.01,2013-07-20 20:52:00,
2013-07-20 16:57:00,75.7,61.3,29.09,WNW,292,0.0,1.3,61,0.00,,---,0.00,VWS V14.01,2013-07-20 20:57:00,
2013-07-20 17:02:00,75.6,61.6,29.09,WSW,248,2.0,2.9,62,0.00,,---,0.00,VWS V14.01,2013-07-20 21:02:00,
2013-07-20 17:07:00,75.7,62.3,29.09,ESE,112,1.3,1.6,63,0.00,,---,0.00,VWS V14.01,2013-07-20 21:07:00,
2013-07-20 17:13:00,76.1,64.8,29.09,West,270,0.0,0.0,68,0.00,,---,0.00,VWS V14.01,2013-07-20 21:13:00,
2013-07-20 17:18:00,76.6,64.9,29.09,ENE,68,3.4,3.4,67,0.00,,---,0.00,VWS V14.01,2013-07-20 21:18:00,
2013-07-20 17:23:00,77.0,64.8,29.09,ENE,68,2.2,3.1,66,0.00,,---,0.00,VWS V14.01,2013-07-20 21:23:00,
2013-07-20 17:28:00,77.2,64.9,29.09,ENE,68,1.6,2.5,66,0.00,,---,0.00,VWS V14.01,2013-07-20 21:28:00,
2013-07-20 17:34:00,77.0,64.8,29.09,ENE,68,1.1,2.0,66,0.00,,---,0.00,VWS V14.01,2013-07-20 21:34:00,
2013-07-20 17:39:00,76.8,65.5,29.09,NE,45,1.3,1.3,68,0.00,,---,0.00,VWS V14.01,2013-07-20 21:39:00,
2013-07-20 17:45:00,76.6,65.3,29.09,NE,45,2.0,2.0,68,0.00,,---,0.00,VWS V14.01,2013-07-20 21:45:00,
2013-07-20 17:50:00,76.6,65.3,29.09,NE,45,1.3,2.0,68,0.00,,---,0.00,VWS V14.01,2013-07-20 21:50:00,
2013-07-20 17:55:00,77.2,65.8,29.12,NE,45,0.0,0.0,68,0.00,,---,0.00,VWS V14.01,2013-07-20 21:55:00,
2013-07-20 18:01:00,78.6,67.2,29.12,ENE,68,2.0,2.5,68,0.00,,---,0.00,VWS V14.01,2013-07-20 22:01:00,
2013-07-20 18:06:00,79.2,66.8,29.12,NNE,22,1.3,1.3,66,0.00,,---,0.00,VWS V14.01,2013-07-20 22:06:00,
2013-07-20 18:11:00,79.5,67.2,29.12,NE,45,1.6,1.6,66,0.00,,---,0.00,VWS V14.01,2013-07-20 22:11:00,
2013-07-20 18:16:00,79.7,66.5,29.12,East,90,1.1,1.6,64,0.00,,---,0.00,VWS V14.01,2013-07-20 22:16:00,
2013-07-20 18:21:00,80.1,66.8,29.12,East,90,0.0,0.0,64,0.00,,---,0.00,VWS V14.01,2013-07-20 22:21:00,
2013-07-20 18:26:00,80.2,66.5,29.12,East,90,0.0,0.0,63,0.00,,---,0.00,VWS V14.01,2013-07-20 22:26:00,
2013-07-20 18:31:00,80.2,66.5,29.12,ENE,68,1.3,2.7,63,0.00,,---,0.00,VWS V14.01,2013-07-20 22:31:00,
2013-07-20 18:37:00,79.7,65.5,29.12,ENE,68,0.0,0.0,62,0.00,,---,0.00,VWS V14.01,2013-07-20 22:37:00,
2013-07-20 18:43:00,79.9,66.2,29.12,NNE,22,2.5,2.5,63,0.00,,---,0.00,VWS V14.01,2013-07-20 22:43:00,
2013-07-20 18:49:00,79.9,66.2,29.12,West,270,2.2,2.9,63,0.00,,---,0.00,VWS V14.01,2013-07-20 22:49:00,
2013-07-20 18:55:00,79.7,65.5,29.09,East,90,3.1,3.1,62,0.00,,---,0.00,VWS V14.01,2013-07-20 22:55:00,
2013-07-20 19:01:00,79.5,65.4,29.09,NE,45,0.0,0.0,62,0.00,,---,0.00,VWS V14.01,2013-07-20 23:01:00,
2013-07-20 19:06:00,79.3,65.7,29.09,NE,45,0.0,0.0,63,0.00,,---,0.00,VWS V14.01,2013-07-20 23:06:00,
2013-07-20 19:12:00,79.2,65.5,29.12,NE,45,0.0,0.0,63,0.00,,---,0.00,VWS V14.01,2013-07-20 23:12:00,
2013-07-20 19:17:00,78.8,65.6,29.12,NE,45,0.0,0.0,64,0.00,,---,0.00,VWS V14.01,2013-07-20 23:17:00,
2013-07-20 19:22:00,78.4,65.7,29.12,NE,45,0.0,0.0,65,0.00,,---,0.00,VWS V14.01,2013-07-20 23:22:00,
2013-07-20 19:27:00,78.1,65.8,29.12,WNW,292,0.0,0.0,66,0.00,,---,0.00,VWS V14.01,2013-07-20 23:27:00,
2013-07-20 19:34:00,77.4,65.1,29.12,WNW,292,0.0,0.0,66,0.00,,---,0.00,VWS V14.01,2013-07-20 23:34:00,
2013-07-20 19:39:00,77.0,65.2,29.12,WNW,292,0.0,0.0,67,0.00,,---,0.00,VWS V14.01,2013-07-20 23:39:00,
2013-07-20 19:45:00,76.5,64.7,29.12,NE,45,0.0,0.0,67,0.00,,---,0.00,VWS V14.01,2013-07-20 23:45:00,
2013-07-20 19:53:00,75.9,65.0,29.14,NE,45,0.0,0.0,69,0.00,,---,0.00,VWS V14.01,2013-07-20 23:53:00,
2013-07-20 19:58:00,75.7,64.9,29.14,NE,45,0.0,0.0,69,0.00,,---,0.00,VWS V14.01,2013-07-20 23:58:00,
2013-07-20 20:03:00,75.7,64.9,29.14,NE,45,0.0,0.0,69,0.00,,---,0.00,VWS V14.01,2013-07-21 00:03:00,
2013-07-20 20:09:00,75.7,64.9,29.14,NE,45,0.0,0.0,69,0.00,,---,0.00,VWS V14.01,2013-07-21 00:09:00,
2013-07-20 20:15:00,74.5,64.1,29.14,WSW,248,0.0,0.0,70,0.00,,---,0.00,VWS V14.01,2013-07-21 00:15:00,
2013-07-20 20:20:00,74.1,64.1,29.14,NNW,338,0.0,0.0,71,0.00,,---,0.00,VWS V14.01,2013-07-21 00:20:00,
2013-07-20 20:25:00,73.8,63.8,29.14,WSW,248,0.0,0.0,71,0.00,,---,0.00,VWS V14.01,2013-07-21 00:25:00,
2013-07-20 20:31:00,73.2,62.0,29.14,WNW,292,0.0,0.0,68,0.00,,---,0.00,VWS V14.01,2013-07-21 00:31:00,
2013-07-20 20:36:00,73.0,61.5,29.14,WSW,248,0.0,0.0,67,0.00,,---,0.00,VWS V14.01,2013-07-21 00:36:00,
2013-07-20 20:42:00,72.7,55.1,29.14,NNE,22,1.3,2.2,54,0.00,,---,0.00,VWS V14.01,2013-07-21 00:42:00,
2013-07-20 20:47:00,73.0,56.4,29.14,SSW,202,2.0,2.5,56,0.00,,---,0.00,VWS V14.01,2013-07-21 00:47:00,
2013-07-20 20:52:00,72.9,56.8,29.14,SW,225,2.5,2.5,57,0.00,,---,0.00,VWS V14.01,2013-07-21 00:52:00,
2013-07-20 20:58:00,72.1,58.4,29.17,West,270,1.6,2.2,62,0.00,,---,0.00,VWS V14.01,2013-07-21 00:58:00,
2013-07-20 21:04:00,71.4,57.7,29.17,WSW,248,0.9,1.6,62,0.00,,---,0.00,VWS V14.01,2013-07-21 01:04:00,
2013-07-20 21:09:00,70.7,57.9,29.17,SW,225,2.5,2.7,64,0.00,,---,0.00,VWS V14.01,2013-07-21 01:09:00,
2013-07-20 21:14:00,70.3,57.2,29.17,WSW,248,0.0,0.0,63,0.00,,---,0.00,VWS V14.01,2013-07-21 01:14:00,
2013-07-20 21:19:00,69.8,57.5,29.17,SW,225,2.0,2.2,65,0.00,,---,0.00,VWS V14.01,2013-07-21 01:19:00,
2013-07-20 21:25:00,69.3,57.0,29.20,SW,225,0.0,0.0,65,0.00,,---,0.00,VWS V14.01,2013-07-21 01:25:00,
2013-07-20 21:30:00,69.1,57.7,29.20,WSW,248,0.0,0.9,67,0.00,,---,0.00,VWS V14.01,2013-07-21 01:30:00,
2013-07-20 21:35:00,68.7,56.9,29.20,SSE,158,0.0,0.0,66,0.00,,---,0.00,VWS V14.01,2013-07-21 01:35:00,
2013-07-20 21:40:00,68.7,56.9,29.20,West,270,1.6,2.0,66,0.00,,---,0.00,VWS V14.01,2013-07-21 01:40:00,
2013-07-20 21:46:00,68.5,57.6,29.20,SSW,202,1.6,2.2,68,0.00,,---,0.00,VWS V14.01,2013-07-21 01:46:00,
2013-07-20 21:51:00,68.4,57.4,29.20,SSW,202,2.5,2.5,68,0.00,,---,0.00,VWS V14.01,2013-07-21 01:51:00,
2013-07-20 21:56:00,68.0,56.7,29.20,SW,225,0.0,0.0,67,0.00,,---,0.00,VWS V14.01,2013-07-21 01:56:00,
2013-07-20 22:01:00,68.0,57.1,29.20,SW,225,0.0,0.0,68,0.00,,---,0.00,VWS V14.01,2013-07-21 02:01:00,
2013-07-20 22:07:00,67.6,56.7,29.20,North,0,0.0,0.0,68,0.00,,---,0.00,VWS V14.01,2013-07-21 02:07:00,
2013-07-20 22:12:00,67.6,57.1,29.20,WSW,248,1.3,1.3,69,0.00,,---,0.00,VWS V14.01,2013-07-21 02:12:00,
2013-07-20 22:18:00,67.3,57.2,29.20,WSW,248,0.0,0.0,70,0.00,,---,0.00,VWS V14.01,2013-07-21 02:18:00,
2013-07-20 22:23:00,67.1,57.0,29.20,WNW,292,0.0,0.0,70,0.00,,---,0.00,VWS V14.01,2013-07-21 02:23:00,
2013-07-20 22:28:00,67.1,57.4,29.23,SSW,202,0.0,0.0,71,0.00,,---,0.00,VWS V14.01,2013-07-21 02:28:00,
2013-07-20 22:35:00,66.9,57.2,29.23,WNW,292,0.0,0.0,71,0.00,,---,0.00,VWS V14.01,2013-07-21 02:35:00,
2013-07-20 22:40:00,66.9,57.2,29.23,WSW,248,1.6,2.0,71,0.00,,---,0.00,VWS V14.01,2013-07-21 02:40:00,
2013-07-20 22:45:00,67.1,57.0,29.23,South,180,1.3,2.7,70,0.00,,---,0.00,VWS V14.01,2013-07-21 02:45:00,
2013-07-20 22:50:00,67.3,57.2,29.23,SW,225,0.0,2.5,70,0.00,,---,0.00,VWS V14.01,2013-07-21 02:50:00,
2013-07-20 22:56:00,67.5,57.3,29.23,WSW,248,2.0,2.0,70,0.00,,---,0.00,VWS V14.01,2013-07-21 02:56:00,
2013-07-20 23:02:00,67.6,56.3,29.23,SSW,202,0.9,1.6,67,0.00,,---,0.00,VWS V14.01,2013-07-21 03:02:00,
2013-07-20 23:07:00,67.5,56.5,29.23,WNW,292,2.0,2.0,68,0.00,,---,0.00,VWS V14.01,2013-07-21 03:07:00,
2013-07-20 23:12:00,67.5,56.5,29.23,South,180,0.0,0.0,68,0.00,,---,0.00,VWS V14.01,2013-07-21 03:12:00,
2013-07-20 23:19:00,67.5,56.1,29.23,SSE,158,0.0,0.0,67,0.00,,---,0.00,VWS V14.01,2013-07-21 03:19:00,
2013-07-20 23:24:00,67.3,56.4,29.26,ESE,112,0.0,0.0,68,0.00,,---,0.00,VWS V14.01,2013-07-21 03:24:00,
2013-07-20 23:29:00,67.1,56.2,29.26,ESE,112,0.0,0.0,68,0.00,,---,0.00,VWS V14.01,2013-07-21 03:29:00,
2013-07-20 23:35:00,66.9,56.0,29.26,ENE,68,1.1,2.5,68,0.00,,---,0.00,VWS V14.01,2013-07-21 03:35:00,
2013-07-20 23:41:00,66.9,56.4,29.26,ENE,68,0.0,0.0,69,0.00,,---,0.00,VWS V14.01,2013-07-21 03:41:00,
2013-07-20 23:46:00,66.7,56.7,29.26,West,270,2.2,2.5,70,0.00,,---,0.00,VWS V14.01,2013-07-21 03:46:00,
2013-07-20 23:51:00,66.4,55.5,29.26,WNW,292,0.0,0.0,68,0.00,,---,0.00,VWS V14.01,2013-07-21 03:51:00,
2013-07-20 23:56:00,66.6,56.1,29.26,WNW,292,0.0,0.0,69,0.00,,---,0.00,VWS V14.01,2013-07-21 03:56:00,